CST,Max TemperatureF,Mean TemperatureF,Min TemperatureF,Max Dew PointF,MeanDew PointF,Min DewpointF,Max Humidity, Mean Humidity, Min Humidity, Max Sea Level PressureIn, Mean Sea Level PressureIn, Min Sea Level PressureIn, Max VisibilityMiles, Mean VisibilityMiles, Min VisibilityMiles, Max Wind SpeedMPH, Mean Wind SpeedMPH, Max Gust SpeedMPH,PrecipitationIn, CloudCover, Events, WindDirDegrees
2013-2-1,29,19,8,14,6,-1,69,54,38,30.53,30.40,30.22,10,10,10,12,6,15,0.00,3,,222
2013-2-2,46,37,27,31,24,15,75,64,53,30.22,30.16,30.08,10,10,10,22,9,29,T,4,,270
2013-2-3,43,38,33,31,22,15,75,56,36,30.29,30.14,29.92,10,10,10,25,10,30,0.00,0,,269
2013-2-4,51,39,27,35,28,23,85,64,42,30.01,29.91,29.79,10,10,6,18,10,24,0.00,1,,308
2013-2-5,57,41,24,34,28,22,92,66,40,30.14,30.01,29.94,10,9,5,18,7,24,0.00,0,,270
2013-2-6,62,47,31,34,31,27,85,60,35,30.17,30.06,29.96,10,10,10,20,11,23,0.00,2,,144
2013-2-7,51,43,34,48,42,30,93,73,52,30.18,29.96,29.90,10,6,2,24,12,28,0.25,8,Rain-Thunderstorm,233
2013-2-8,36,34,31,30,28,26,85,78,70,30.39,30.32,30.19,10,9,7,18,10,23,0.00,8,,54
2013-2-9,49,40,31,36,30,27,92,69,46,30.31,30.13,29.88,10,9,5,21,13,26,0.04,5,Rain,136
2013-2-10,60,50,39,49,38,23,89,63,36,29.90,29.68,29.51,10,9,3,35,20,46,0.16,6,Rain-Thunderstorm,193
2013-2-11,49,42,34,28,26,23,75,57,39,30.17,30.10,29.94,10,10,10,23,10,31,0.00,0,,266
2013-2-12,41,34,27,30,27,23,85,72,59,30.18,30.10,29.99,10,10,9,9,3,25,0.00,3,,19
2013-2-13,52,42,31,33,29,25,85,63,41,29.97,29.90,29.84,10,10,9,18,10,23,0.00,0,,237
2013-2-14,51,44,36,33,29,25,76,59,42,30.14,30.00,29.85,10,10,10,17,10,29,T,2,,287
2013-2-15,39,32,25,28,17,12,75,55,35,30.38,30.30,30.16,10,10,10,20,11,24,0.00,3,,326
2013-2-16,37,29,20,22,17,15,84,64,44,30.35,30.26,30.15,10,10,10,15,6,24,0.00,4,,277
2013-2-17,58,43,28,30,25,20,75,54,32,30.14,29.98,29.77,10,10,10,21,11,25,0.00,1,,142
2013-2-18,58,44,29,50,36,20,89,67,44,30.06,29.71,29.51,10,8,1,32,19,40,0.33,5,Rain-Thunderstorm,259
2013-2-19,34,28,22,19,14,7,69,52,35,30.36,30.24,30.08,10,10,10,22,13,26,0.00,0,,301
2013-2-20,28,23,17,14,10,6,67,59,50,30.43,30.35,30.25,10,10,10,13,8,,0.00,3,,53
2013-2-21,29,26,22,27,21,10,96,76,55,30.26,29.92,29.77,10,2,0,25,13,36,0.87,8,Fog-Rain-Snow-Thunderstorm,95
2013-2-22,33,25,16,31,22,11,92,80,68,30.11,29.94,29.78,10,8,1,21,10,30,T,6,Rain-Snow,253
2013-2-23,32,21,10,17,14,8,92,73,53,30.12,30.06,30.02,10,8,4,9,5,12,0.00,0,,223
2013-2-24,45,30,15,25,20,13,92,69,45,30.10,30.04,29.98,10,10,7,13,6,18,0.00,0,,106
2013-2-25,42,35,28,32,28,22,96,73,49,30.01,29.81,29.62,10,6,0,26,12,35,0.33,6,Fog-Rain-Snow,65
2013-2-26,35,34,33,32,31,28,96,89,82,29.82,29.58,29.45,10,3,0,23,17,28,0.57,8,Fog-Snow,353
2013-2-27,33,31,29,29,27,22,92,81,69,30.01,29.89,29.79,10,3,1,23,13,30,0.02,8,Snow,290
2013-2-28,33,31,28,25,24,22,85,77,69,30.20,30.13,29.99,10,10,10,22,13,28,0.00,8,,307